This is the latest recevied weather packets stored in our database for station/object W1RCY. If no packets are shown the sender has not sent any weather packets the latest 10 day(s).
| Time | Temp. | Humidity | Pressure | Rain* | Wind** | Luminosity | Snow |
|---|---|---|---|---|---|---|---|
| 1777994535 | 22.78° C | 51% | 1006.5 hPa | 0 mm | - | 704 W/m² | - |
| 1777994229 | 22.78° C | 52% | 1006.7 hPa | 0 mm | - | 698 W/m² | - |
| 1777993927 | 22.78° C | 51% | 1006.7 hPa | 0 mm | - | 698 W/m² | - |
| 1777993623 | 22.78° C | 52% | 1006.6 hPa | 0 mm | - | 681 W/m² | - |
| 1777993322 | 22.78° C | 52% | 1006.6 hPa | 0 mm | - | 307 W/m² | - |
| 1777993021 | 22.22° C | 52% | 1006.8 hPa | 0 mm | - | 165 W/m² | - |
| 1777992720 | 21.67° C | 53% | 1006.8 hPa | 0 mm | - | 430 W/m² | - |
| 1777992416 | 21.67° C | 55% | 1007 hPa | 0 mm | - | 197 W/m² | - |
| 1777992114 | 21.11° C | 56% | 1007 hPa | 0 mm | - | 488 W/m² | - |
| 1777991812 | 20.56° C | 56% | 1006.7 hPa | 0 mm | - | 476 W/m² | - |
| 1777991509 | 20° C | 56% | 1006.9 hPa | 0 mm | - | 449 W/m² | - |
| 1777991206 | 20° C | 56% | 1007.1 hPa | 0 mm | - | 341 W/m² | - |
| 1777990903 | 20° C | 57% | 1006.9 hPa | 0 mm | - | 182 W/m² | - |
| 1777990601 | 19.44° C | 57% | 1007 hPa | 0 mm | - | 513 W/m² | - |
| 1777989994 | 19.44° C | 58% | 1006.8 hPa | 0 mm | - | 147 W/m² | - |
| 1777989691 | 18.89° C | 61% | 1007 hPa | 0 mm | - | 206 W/m² | - |
| 1777989386 | 18.33° C | 61% | 1007 hPa | 0 mm | - | 243 W/m² | - |
| 1777989083 | 17.78° C | 61% | 1007 hPa | 0 mm | - | 187 W/m² | - |
| 1777988779 | 17.78° C | 62% | 1006.6 hPa | 0 mm | - | 198 W/m² | - |
| 1777988477 | 17.78° C | 63% | 1006.6 hPa | 0 mm | - | 212 W/m² | - |
| 1777988174 | 17.22° C | 63% | 1006.5 hPa | 0 mm | - | 170 W/m² | - |
| 1777987869 | 17.22° C | 64% | 1006.7 hPa | 0 mm | - | 224 W/m² | - |
| 1777987566 | 17.22° C | 63% | 1006.7 hPa | 0 mm | - | 194 W/m² | - |
| 1777987264 | 17.22° C | 62% | 1006.6 hPa | 0 mm | - | 228 W/m² | - |
| 1777986960 | 17.78° C | 63% | 1006.9 hPa | 0 mm | - | 178 W/m² | - |
* Rain latest hour (hover to see other rain measurements)
** Current wind speed in m/s (hover to see current wind gust speed)